Regional Weather Roundup
Issued by NWS Dallas/Fort Worth, TX

Current Version | Previous Version | Text Only | Print | Product List | Glossary On
Versions: 1 2 3 4 5 6 7 8 9 10 11 12 13 14 15 16 17 18 19 20 21 22 23 24 25 26 27 28 29 30 31 32 33 34 35 36 37 38 39 40 41 42 43 44 45 46 47 48 49 50
000
ASUS44 KFWD 021301
RWRFWD
NORTH TEXAS HOURLY WEATHER ROUNDUP
NATIONAL WEATHER SERVICE FORT WORTH TX
700 AM CST SAT MAR 02 2024

NOTE: "FAIR" INDICATES FEW OR NO CLOUDS BELOW 12,000 FEET WITH NO
SIGNIFICANT WEATHER AND/OR OBSTRUCTIONS TO VISIBILITY.

TXZ118-119-021400-
DALLAS/FORT WORTH METROPLEX

CITY           SKY/WX    TMP DP  RH WIND       PRES   REMARKS
DFW AIRPORT    CLEAR     51  48  89 S9        29.96R
DALLAS LOVE    CLEAR     50  49  96 SE6       29.98S
FTW MEACHAM    CLEAR     47  44  90 SE8       29.96R
DAL-EXECUTIVE  CLEAR     48  47  96 S5        29.98R
FTW-ALLIANCE   CLEAR     49  45  86 S9        29.95R
FTW-NAS-JRB    CLEAR     51  44  77 SE6       29.97R
FTW-SPINKS     CLEAR     50  45  81 S6        29.99S
ARLINGTON      CLEAR     50  47  89 S7        29.98R
GRAND PRAIRIE  CLEAR     50  50 100 S5        30.00R
ADDISON        CLEAR     52  46  82 SE6       29.99R
MESQUITE       CLEAR     48  48 100 S6        30.00S FOG
LANCASTER      FOG       45  44  97 SE3       30.01R VSB 1/4
$$

TXZ091>094-102>105-117-120-121-131>134-021400-
NORTH CENTRAL TEXAS

CITY           SKY/WX    TMP DP  RH WIND       PRES   REMARKS
SHRMAN/DENISON CLEAR     50  48  93 SE10      29.96F
BOWIE          CLEAR     46  44  93 S3        29.93S
DECATUR        CLEAR     56  42  58 SW8       29.94S
DENTON         CLEAR     49  46  90 SE7       29.96S
MCKINNEY       CLEAR     50  48  93 S8        29.98R FOG
BONHAM         CLEAR     45 N/A N/A SE7       29.99R FOG
GREENVILLE     CLEAR     50  50 100 S7        30.00S FOG
ROCKWALL       CLEAR     51  51 100 S10       30.00R
TERRELL        CLEAR     52  49  89 S8        30.01R
CLEBURNE       CLEAR     48  48 100 S7        30.00S
GRANBURY       CLEAR     49  44  84 SE3       29.99S
$$

TXZ083>090-098>101-113>116-127>130-139>142-154-155-021400-
WESTERN NORTH TEXAS

CITY           SKY/WX    TMP DP  RH WIND       PRES   REMARKS
WICHITA FALLS  CLEAR     46  40  79 SW10      29.90R
WF-KICKAPOO    CLEAR     49  41  74 SW6       29.92S
VERNON         CLEAR     39  37  94 SW7       29.91R WCI  34
ABILENE        CLEAR     55  37  50 S12       29.97R
ABILENE-DYESS  CLEAR     54  37  52 S12       29.93S
BRECKENRIDGE   CLEAR     59  38  45 MISG      29.96R
CISCO          CLEAR     57  37  47 SW16      29.96R
EASTLAND       CLEAR     47  37  68 CALM      29.98S
MINERAL WELLS  CLEAR     48  43  82 SE9       29.95R
STEPHENVILLE   CLEAR     47  43  84 S3        30.02S
COMANCHE       CLEAR     54  43  66 SW7       30.01R
COLEMAN        CLEAR     47  36  64 CALM      30.02R
SAN SABA       CLEAR     44  42  95 NE5       30.04R
$$

TXZ143>147-156>162-174-175-021400-
CENTRAL TEXAS

CITY           SKY/WX    TMP DP  RH WIND       PRES   REMARKS
WACO           CLEAR     45  44  97 SE5       30.01S FOG
WACO-MCGREGOR  CLEAR     47  46  97 S3        30.02R FOG
HILLSBORO      CLEAR     48  48 100 S7        30.00R FOG
CORSICANA      CLEAR     53  50  89 S8        30.03R FOG
MEXIA            N/A     49  49  99 S7        30.02S FOG
HEARNE         FOG       49  48  96 CALM      30.06R VSB 1/4
TEMPLE         LGT RAIN  44  44 100 S8        30.03S VSB 1/4 WCI  39
KILLEEN        CLEAR     54  50  88 S8        30.00F
KILLEEN-SKYLRK CLEAR     49  49 100 S5        30.02S
FORT CAVAZOS   CLEAR     49  47  95 CALM      30.01S
GATESVILLE       N/A     45  45 100 CALM      30.02S
HAMILTON       CLEAR     49  46  90 CALM      30.01F
$$

TXZ095>097-106>112-122>126-135>138-148>153-164>167-021400-
EAST TEXAS

CITY           SKY/WX    TMP DP  RH WIND       PRES   REMARKS
PARIS          CLEAR     43  43 100 SE12      30.02S FOG     WCI  37
GILMER         CLEAR     42  41  95 CALM      30.05R FOG
TYLER          CLEAR     49  46  90 S9        30.03R
LONGVIEW       CLEAR     43  41  93 CALM      30.05R FOG
MARSHALL       CLEAR     39  39 100 CALM      30.06S FOG
ATHENS         FOG       43  43 100 CALM      30.03R VSB 1/2
JACKSONVILLE   CLEAR     50  50  99 SW7       30.06S
CENTER         FOG       43  41  93 CALM      30.09R VSB 1/4
NACOGDOCHES    FOG       41  32  70 CALM      30.09R VSB 1/2
LUFKIN         FOG       48  46  93 CALM      30.08R VSB 1/4
$$

SUPPLEMENTAL OBSERVATIONS (NWS FORT WORTH AREA)

CITY           SKY/WX    TMP DP  RH WIND       PRES   REMARKS
$$

SUPPLEMENTAL OBSERVATIONS (NWS NORMAN AREA)

CITY           SKY/WX    TMP DP  RH WIND       PRES   REMARKS
GOODLETT         N/A     43  33  68 SW9       29.87  WCI  38
ODELL            N/A     42  38  83 S6        29.89S WCI  39
CROWELL          N/A     43  34  72 SW6       29.91R WCI  39
KNOX CITY        N/A     44  38  79 SW13      29.92  WCI  37
SEYMOUR          N/A     49  38  65 SW7       29.92S
$$

SUPPLEMENTAL OBSERVATIONS (NWS SAN ANGELO AREA)

CITY           SKY/WX    TMP DP  RH WIND       PRES   REMARKS
WEINERT          N/A     43  35  73 S9        29.94R WCI  38
HASKELL          N/A     47  36  64 SW14      29.93
THROCKMORTON     N/A     54  38  55 SW9       29.94
STAMFORD         N/A     45  37  74 S7        29.96
CLYDE            N/A     56  37  49 SW14      30.00S
$$

SUPPLEMENTAL OBSERVATIONS (NWS SHREVEPORT AREA)

CITY           SKY/WX    TMP DP  RH WIND       PRES   REMARKS
$$

SUPPLEMENTAL OBSERVATIONS ARE A COLLECTION OF AUTOMATED INSTRUMENTS
THAT ARE MAINTAINED BY A VARIETY OF FEDERAL AND STATE AGENCIES.
CERTAIN ELEMENTS...SUCH AS HUMIDITY VALUES AND SUSTAINED WIND
SPEEDS...MAY BE APPROXIMATED.




USA.gov is the U.S. government's official web portal to all federal, state and local government web resources and services.